Regional Weather Roundup
Issued by NWS

Home | Current Version | Previous Version | Text Only | Print | Product List | Glossary On
Versions: 1 2 3 4 5 6 7 8 9 10 11 12 13 14 15 16 17 18 19 20 21 22 23 24 25 26 27 28 29 30 31 32 33 34 35 36 37 38 39 40 41 42 43 44 45 46 47 48 49 50
000
ASUS46 KLOX 080513
RWRCA

SOUTHERN CALIFORNIA WEATHER ROUNDUP
NATIONAL WEATHER SERVICE OXNARD CALIFORNIA
1000 PM PDT TUE JUL 07 2015

NOTE: "FAIR" INDICATES FEW OR NO CLOUDS BELOW 12,000 FEET WITH NO
SIGNIFICANT WEATHER AND/OR OBSTRUCTIONS TO VISIBILITY.

  -  STATIONS PRECEEDED BY AN ASTERISK (*) ARE NOT NWS OR FAA
     STATIONS AND ARE NOT SUBJECT TO NWS AND FAA QUALITY CONTROL.

CAZ041-042-087-080600-
LA AND ORANGE COUNTY COASTAL AREAS


CITY           SKY/WX    TMP DP  RH WIND       PRES   REMARKS
L.A. DOWNTOWN  PTCLDY    66  60  81 CALM      29.90R
L.A. AIRPORT   PTCLDY    66  61  84 SW9       29.90R
LONG BEACH     CLEAR     69  59  70 CALM      29.91R

CITY           SKY/WX    TMP DP  RH WIND       PRES   REMARKS
AVALON           N/A     64 N/A N/A SE2         N/A
FULLERTON      CLEAR     68  60  75 S5        29.90R
*GETTY CENTER    N/A     59  59 100 NE5         N/A
HAWTHORNE      PTCLDY    67  61  81 SW6       29.91R
*LOS ALAMITOS  CLEAR     64  62  90 S2        29.91R
*REDONDO BEACH   N/A     65  61  85 CALM      29.91R
SANTA ANA      MOCLDY    65  60  84 S5        29.92R
STA MONICA APT PTCLDY    63  61  93 E3        29.90R
*UCLA            N/A     64  59  82 E1        29.88R

$$

CAZ547-548-048-080600-
LA COUNTY VALLEYS AND INLAND EMPIRE


CITY           SKY/WX    TMP DP  RH WIND       PRES   REMARKS
BURBANK        CLEAR     67  59  75 SE9       29.90R
VAN NUYS       CLEAR     66  59  78 E5        29.90R

CITY           SKY/WX    TMP DP  RH WIND       PRES   REMARKS
CORONA AIRPORT CLEAR     66  59  78 W8        29.91R
*CHATSWORTH      N/A     68  59  74 E1        29.88R
CHINO          CLEAR     66  60  81 W9        29.92R
MARCH AFB      CLEAR     65  59  78 NW3       29.93R
*NORTHRIDGE      N/A     66  57  72 NE3         N/A
ONTARIO        CLEAR     66  59  78 W10       29.91R
*PASADENA        N/A     66  61  82 E1          N/A
RIVERSIDE      CLEAR     67  59  75 W6        29.91R
SAN BERNARDINO NOT AVBL
*SAN GABRIEL     N/A     67  61  81 S3        29.98R
*WHITEMAN AP   NOT AVBL
*WOODLAND HILL   N/A     68  59  73 NE2         N/A

$$

CAZ054-055-080600-
LA AND SAN BERNARDINO COUNTY MOUNTAINS


CITY           SKY/WX    TMP DP  RH WIND       PRES   REMARKS
*BIG BEAR AIRP CLEAR     55  28  35 CALM      30.16S
SANDBERG       CLEAR     69  47  45 NW10G22   30.04R

$$

CAZ028-029-059-060-099-080600-
ANTELOPE VALLEY AND SURROUNDING AREAS


CITY           SKY/WX    TMP DP  RH WIND       PRES   REMARKS
LANCASTER      CLEAR     75  48  38 SW12      29.90R
PALMDALE       CLEAR     73  44  35 SW13      29.92R

CITY           SKY/WX    TMP DP  RH WIND       PRES   REMARKS
29 PALMS       CLEAR     86  32  14 SW13      29.86R
BARSTOW/DAGGET CLEAR     86  33  15 W23       29.81R
BISHOP         PTCLDY    74  45  35 N17       29.94R
CHINA LAKE     CLEAR     84  40  21 SW9       29.80R
EDWARDS AFB    CLEAR     76  35  22 SW12      29.86R
MOJAVE         FAIR      77  48  36 W18G32    29.89R
NEEDLES        CLEAR    101  39  12 W12       29.68R HX  96
VICTORVILLE    CLEAR     73  37  27 CALM      29.92R

$$

CAZ039-040-080600-
VENTURA AND SANTA BARBARA COUNTY COAST


CITY           SKY/WX    TMP DP  RH WIND       PRES   REMARKS
CAMARILLO      CLEAR     65  58  78 SE5       29.89R
OXNARD AIRPORT CLEAR     66  59  78 SW5       29.88R
*POINT MUGU    CLEAR     66  59  78 W6        29.90R
SBA APT/GOLETA CLEAR     67  60  78 SE10      29.85R
*SANTA BARBARA   N/A     68  59  73 CALM      29.95R
*VENTURA         N/A     66  58  77 CALM      29.50R

$$

CAZ044-045-080600-
VENTURA COUNTY VALLEYS


CITY           SKY/WX    TMP DP  RH WIND       PRES   REMARKS
*SIMI VALLEY     N/A     64  59  82 CALM      29.86R
*OJAI            N/A     65  58  78 CALM      29.82R
*FILLMORE        N/A     66  57  72 W2        29.80R

$$

CAZ053-080600-
VENTURA COUNTY MOUNTAINS


CITY           SKY/WX    TMP DP  RH WIND       PRES   REMARKS

$$

CAZ034-035-036-080600-
CENTRAL COAST AND SANTA YNEZ VALLEY


CITY           SKY/WX    TMP DP  RH WIND       PRES   REMARKS
SAN LUIS OBISP CLOUDY    64  58  80 NW8       29.96R
SANTA MARIA    CLEAR     63  59  87 NW7       29.96R

CITY           SKY/WX    TMP DP  RH WIND       PRES   REMARKS
*CAL POLY SLO    N/A     63  59  88 W3G13       N/A
*LOMPOC        CLEAR     63  55  77 NW6       29.96S
*PISMO BEACH     N/A     63  60  91 CALM      29.96R
*SANTA YNEZ    FAIR      63  54  72 NW6       29.95R

$$

CAZ037-038-051-080600-
SAN LUIS OBISPO COUNTY INTERIOR AND CUYAMA VALLEY


CITY           SKY/WX    TMP DP  RH WIND       PRES   REMARKS
*CUYAMA          N/A     65  51  60 W10       29.83R
PASO ROBLES    CLEAR     64  55  72 SW12      29.91R

$$

CAZ032-033-061-080600-
SOUTHERN DESERTS


CITY           SKY/WX    TMP DP  RH WIND       PRES   REMARKS
BLYTHE         CLEAR     96  52  22 S10       29.67R HX  93
IMPERIAL       CLEAR     90  41  18 W14       29.66R
PALM SPRINGS   CLEAR     88  56  33 NW21G30   29.71R
THERMAL        CLEAR     91  55  29 N20G25    29.64R

$$

ELSEWHERE ACROSS THE WESTERN UNITED STATES AND MEXICO


CITY           SKY/WX    TMP DP  RH WIND       PRES   REMARKS
DENVER, CO     MOCLDY    59  53  80 S8        30.11F HAZE
GRAND CANYON,  MOCLDY    62  48  60 SW5       30.19R
HONOLULU, HI   MOCLDY    79  68  69 NE12G22   29.98R
KAHULUI, MAUI  PTCLDY    81  70  69 NE20      29.97R
LAKE TAHOE, CA MOCLDY    55  49  80 CALM      30.13S
LAS VEGAS, NV  MOCLDY    92  52  25 W5        29.74R
MAMMOTH LAKES, FAIR      57  43  58 W10       30.18R
MEXICO CITY, M PTCLDY    64  48  55 W3        30.37R
PHOENIX, AZ    CLEAR     98  47  17 SW5       29.72R HX  94
PORTLAND, OR   PTCLDY    76  59  55 NW7       29.87R
RENO, NV       CLOUDY    68  50  52 NW6       30.05R
SALT LAKE CITY CLOUDY    75  52  44 SE8       29.96S
SAN DIEGO, CA  CLOUDY    68  58  70 NW3       29.95R
SAN FRANCISCO, MOCLDY    61  55  81 W14       29.94S
SAN JOSE, CA   PTCLDY    63  56  78 N12       29.94R
SEATTLE, WA    MOCLDY    68  55  63 N5        29.92R
TIJUANA, MEX   CLOUDY    64  55  72 CALM      29.96R

$$

STATION/POSITION TIME  TEMP    WIND        PRES    VSBY  WAVE
                       AIR SEA DIR/SP/G                  HT/PER
                 (UTC) (F)     (DEG/KT/KT) (MB)    (MI)  (FT/S)
POINT ARGUELLO B NOT AVBL
WEST SANTA BARBA 0450   61 61  310/ 16/ 17 1012.7R         4/19
POINT CONCEPTION NOT AVBL
EAST SANTA BARBA 0400   65 63  270/ 21/ 25 1011.3R
SANTA MONICA BAY 0450   66 67  290/ 14/ 17 1012.0R         5/ 6



USA.gov is the U.S. government's official web portal to all federal, state and local government web resources and services.